Total_Precipitation_Accumulation
0.32 0.41 0.36 0.43 0.42 0.38 0.33 0.36 0.41 0.44 0.61 0.67 0.56 0.52 0.61 0.61 0.81 0.64 0.34 0.14 0.06 0.02 0.00 0.01 0.03 0.03 0.07 0.04 0.07 0.08 0.14 0.13 0.08 0.12 0.19 0.21 0.17 0.11 0.10 0.11 0.11 0.14 0.18 0.26 0.31 0.37 0.46 0.48 0.53 0.62 0.72 0.74 0.85 1.13 1.39 1.57 1.90 2.23 2.67 2.98 3.42 3.52 4.07 4.35 4.19 4.41 4.05 3.60 3.16 3.29 2.88 2.90 3.41 3.81
0.33 0.35 0.41 0.38 0.39 0.36 0.40 0.49 0.39 0.39 0.58 0.60 0.62 0.63 0.60 0.63 0.89 0.73 0.54 0.30 0.10 0.05 0.01 0.00 0.01 0.01 0.02 0.06 0.08 0.06 0.07 0.18 0.10 0.12 0.13 0.20 0.17 0.14 0.14 0.09 0.10 0.09 0.11 0.15 0.20 0.27 0.36 0.46 0.48 0.51 0.52 0.73 0.75 0.87 1.20 1.43 1.80 2.17 2.46 2.90 3.02 3.00 3.23 3.44 3.84 3.90 3.86 3.81 3.61 2.94 2.77 2.63 3.10 3.57
0.40 0.46 0.42 0.39 0.40 0.36 0.39 0.45 0.45 0.47 0.56 0.57 0.56 0.52 0.53 0.68 0.68 0.79 0.69 0.66 0.23 0.06 0.06 0.03 0.00 0.01 0.02 0.03 0.06 0.10 0.12 0.10 0.07 0.14 0.15 0.18 0.19 0.16 0.14 0.12 0.08 0.08 0.11 0.09 0.12 0.18 0.26 0.39 0.48 0.49 0.50 0.50 0.68 0.73 0.85 1.13 1.33 1.77 2.12 2.47 2.81 3.03 2.82 3.22 3.13 3.42 3.58 3.55 3.61 3.40 3.04 2.75 2.82 2.97
0.32 0.37 0.44 0.42 0.39 0.41 0.48 0.51 0.51 0.53 0.57 0.61 0.70 0.70 0.63 0.62 0.61 0.71 0.92 0.79 0.44 0.09 0.06 0.06 0.05 0.05 0.06 0.11 0.06 0.07 0.09 0.13 0.09 0.12 0.11 0.17 0.18 0.21 0.18 0.12 0.13 0.09 0.06 0.09 0.10 0.11 0.17 0.29 0.42 0.43 0.49 0.49 0.55 0.65 0.76 0.82 1.04 1.43 1.63 2.37 2.57 2.87 2.89 2.81 3.02 3.13 3.27 3.69 3.72 3.67 3.42 3.09 2.95 3.02
0.28 0.37 0.44 0.47 0.41 0.47 0.55 0.58 0.61 0.57 0.59 0.70 0.78 0.80 0.86 0.72 0.61 0.69 0.90 0.82 0.53 0.17 0.16 0.08 0.08 0.11 0.12 0.15 0.11 0.09 0.06 0.13 0.12 0.13 0.09 0.13 0.14 0.21 0.23 0.22 0.16 0.13 0.09 0.06 0.08 0.17 0.17 0.19 0.32 0.42 0.51 0.52 0.52 0.58 0.64 0.70 0.85 1.10 1.22 1.54 2.12 2.46 2.90 2.83 2.73 2.84 3.27 3.31 3.73 3.95 4.09 3.67 3.23 3.26
0.23 0.36 0.32 0.29 0.33 0.38 0.51 0.86 0.69 0.53 0.57 0.63 0.81 0.80 0.85 0.86 0.68 0.56 0.91 0.92 0.76 0.35 0.20 0.10 0.12 0.16 0.15 0.22 0.17 0.10 0.05 0.05 0.08 0.11 0.11 0.10 0.09 0.16 0.13 0.20 0.21 0.19 0.14 0.11 0.09 0.08 0.11 0.21 0.22 0.46 0.40 0.46 0.50 0.52 0.53 0.64 0.68 0.92 0.94 1.16 1.65 2.16 2.62 2.65 2.54 2.73 2.72 3.11 3.46 3.67 3.77 3.84 3.79 3.39
0.27 0.33 0.31 0.30 0.28 0.38 0.46 0.48 0.61 0.70 0.74 0.61 0.74 0.76 0.76 0.78 0.66 0.55 0.70 0.95 0.96 0.62 0.37 0.14 0.19 0.19 0.26 0.22 0.23 0.17 0.10 0.06 0.05 0.11 0.07 0.09 0.09 0.08 0.13 0.17 0.15 0.19 0.19 0.16 0.10 0.08 0.09 0.25 0.20 0.21 0.40 0.48 0.47 0.44 0.48 0.60 0.59 0.67 0.73 0.88 1.21 1.63 2.23 2.66 2.50 2.49 2.56 2.78 3.04 3.12 3.39 3.63 3.46 3.69
0.28 0.32 0.34 0.28 0.32 0.34 0.40 0.41 0.44 0.49 0.63 0.69 0.87 0.73 0.73 0.81 0.79 0.59 0.61 0.77 0.96 0.74 0.47 0.30 0.17 0.20 0.26 0.26 0.25 0.20 0.16 0.15 0.11 0.09 0.08 0.07 0.07 0.07 0.10 0.14 0.12 0.12 0.15 0.18 0.19 0.16 0.10 0.10 0.14 0.19 0.29 0.38 0.46 0.45 0.43 0.44 0.49 0.47 0.57 0.71 0.89 1.30 1.57 2.49 2.63 2.45 2.18 2.35 2.59 2.94 2.96 3.38 3.43 3.16
0.24 0.27 0.31 0.29 0.33 0.34 0.41 0.37 0.42 0.40 0.46 0.55 0.65 0.70 0.66 0.74 0.69 0.72 0.79 0.87 0.91 0.93 0.75 0.52 0.37 0.28 0.27 0.33 0.33 0.26 0.28 0.24 0.21 0.17 0.13 0.11 0.11 0.10 0.08 0.08 0.07 0.06 0.10 0.15 0.18 0.20 0.19 0.12 0.08 0.10 0.15 0.33 0.43 0.45 0.40 0.40 0.42 0.44 0.51 0.49 0.71 1.00 1.19 1.49 2.27 2.57 2.32 2.02 2.16 2.45 2.76 2.90 3.49 3.31
0.28 0.34 0.38 0.29 0.34 0.37 0.44 0.42 0.39 0.37 0.43 0.52 0.62 0.69 0.71 0.66 0.74 0.74 0.70 0.73 0.91 0.97 0.75 0.55 0.52 0.43 0.44 0.47 0.39 0.35 0.30 0.30 0.29 0.25 0.21 0.15 0.12 0.13 0.14 0.12 0.11 0.07 0.06 0.09 0.16 0.19 0.25 0.25 0.15 0.10 0.11 0.15 0.28 0.42 0.45 0.41 0.34 0.42 0.41 0.44 0.52 0.89 1.09 1.21 1.45 2.18 2.36 2.32 1.89 2.17 2.50 2.74 3.08 3.22
0.29 0.30 0.33 0.35 0.37 0.43 0.50 0.53 0.55 0.53 0.50 0.55 0.59 0.66 0.74 0.77 0.74 0.68 0.69 0.71 0.75 0.89 0.81 0.68 0.67 0.54 0.45 0.42 0.43 0.43 0.38 0.37 0.31 0.30 0.26 0.23 0.18 0.13 0.12 0.19 0.15 0.10 0.07 0.09 0.08 0.13 0.14 0.16 0.22 0.17 0.11 0.13 0.17 0.31 0.34 0.50 0.53 0.37 0.44 0.53 0.46 0.62 0.91 1.04 1.07 1.37 1.99 2.24 2.40 1.98 2.14 2.40 2.50 2.73
0.30 0.32 0.35 0.36 0.39 0.43 0.51 0.57 0.56 0.63 0.63 0.68 0.80 0.73 0.63 0.65 0.74 0.75 0.69 0.66 0.72 0.77 0.73 0.78 0.68 0.54 0.52 0.52 0.46 0.50 0.60 0.67 0.54 0.37 0.31 0.28 0.20 0.18 0.12 0.11 0.17 0.22 0.23 0.14 0.10 0.10 0.12 0.14 0.15 0.15 0.14 0.13 0.15 0.22 0.36 0.35 0.40 0.38 0.40 0.48 0.50 0.52 0.68 0.83 0.95 1.08 1.35 1.79 2.12 2.26 2.16 2.28 2.37 2.43
0.29 0.28 0.33 0.39 0.42 0.43 0.43 0.45 0.48 0.53 0.66 0.80 0.97 0.67 0.67 0.79 0.84 0.81 0.75 0.70 0.65 0.66 0.65 0.65 0.68 0.75 0.69 0.62 0.63 0.68 0.73 0.68 0.50 0.36 0.33 0.29 0.21 0.17 0.16 0.14 0.12 0.16 0.20 0.21 0.23 0.18 0.17 0.16 0.17 0.18 0.17 0.14 0.14 0.15 0.27 0.37 0.45 0.41 0.51 0.46 0.47 0.50 0.59 0.64 0.78 0.88 1.07 1.26 1.62 1.93 2.32 2.58 2.43 2.52
0.31 0.27 0.27 0.31 0.36 0.38 0.38 0.40 0.44 0.49 0.54 0.70 0.70 0.74 0.95 0.95 0.98 0.92 0.89 0.88 0.78 0.70 0.71 0.58 0.70 0.71 0.67 0.60 0.61 0.59 0.50 0.55 0.49 0.48 0.50 0.44 0.36 0.32 0.27 0.22 0.20 0.19 0.22 0.24 0.26 0.21 0.18 0.17 0.18 0.20 0.18 0.17 0.13 0.14 0.19 0.31 0.42 0.41 0.45 0.62 0.75 0.60 0.50 0.57 0.58 0.76 0.86 1.10 1.21 1.55 1.87 2.36 2.80 2.67
0.34 0.32 0.28 0.26 0.27 0.29 0.27 0.30 0.33 0.38 0.55 0.61 0.53 0.57 0.69 0.80 1.03 1.17 0.99 0.82 0.85 0.90 0.84 0.82 0.98 1.02 0.88 0.80 0.63 0.65 0.67 0.66 0.76 0.57 0.52 0.52 0.60 0.57 0.49 0.42 0.29 0.23 0.23 0.24 0.24 0.23 0.20 0.20 0.20 0.18 0.17 0.29 0.29 0.14 0.12 0.17 0.43 0.41 0.42 0.55 0.61 0.70 0.65 0.58 0.67 0.63 0.75 0.87 1.06 1.24 1.47 1.83 2.23 2.70
0.42 0.38 0.40 0.32 0.34 0.32 0.28 0.27 0.32 0.42 0.53 0.45 0.45 0.50 0.63 0.75 0.85 0.90 1.09 1.00 0.84 0.82 0.87 0.88 0.94 1.10 1.07 0.90 0.76 0.86 0.96 0.84 0.87 0.85 0.87 0.72 0.71 0.70 0.58 0.39 0.30 0.25 0.22 0.26 0.29 0.25 0.22 0.20 0.23 0.22 0.17 0.15 0.15 0.15 0.16 0.14 0.19 0.30 0.41 0.43 0.53 0.58 0.63 0.61 0.75 0.77 0.70 0.81 1.00 1.08 1.25 1.48 1.82 2.18
0.33 0.30 0.29 0.30 0.28 0.30 0.28 0.33 0.42 0.60 0.50 0.36 0.37 0.42 0.56 0.62 0.71 0.85 0.99 0.95 0.82 0.84 0.87 0.81 0.73 0.78 0.96 0.91 0.84 0.98 0.97 0.98 0.94 0.84 0.86 0.80 0.71 0.67 0.67 0.53 0.38 0.30 0.28 0.36 0.41 0.36 0.26 0.24 0.25 0.25 0.22 0.19 0.15 0.16 0.18 0.18 0.21 0.26 0.39 0.49 0.49 0.55 0.54 0.53 0.57 0.68 0.72 0.88 0.98 1.06 1.08 1.29 1.57 1.74
0.29 0.31 0.37 0.35 0.34 0.32 0.31 0.36 0.60 0.65 0.46 0.36 0.36 0.46 0.58 0.59 0.54 0.57 0.69 0.88 0.97 0.88 0.90 0.82 0.74 0.65 0.75 0.79 0.78 0.85 0.93 1.00 1.09 0.87 0.80 0.69 0.76 0.83 0.87 0.64 0.61 0.59 0.57 0.61 0.55 0.45 0.31 0.25 0.23 0.22 0.19 0.18 0.19 0.18 0.20 0.20 0.22 0.28 0.37 0.46 0.54 0.56 0.56 0.55 0.58 0.68 0.70 0.74 0.86 1.10 1.16 1.27 1.41 1.66
0.30 0.25 0.25 0.29 0.31 0.36 0.30 0.37 0.55 0.68 0.65 0.53 0.48 0.52 0.56 0.57 0.53 0.51 0.57 0.66 0.74 0.89 0.96 0.89 0.78 0.68 0.64 0.68 0.66 0.73 0.82 0.92 1.00 1.02 0.85 0.74 0.73 0.88 1.07 0.88 0.74 0.74 0.71 0.66 0.72 0.74 0.39 0.27 0.22 0.19 0.16 0.16 0.16 0.17 0.20 0.20 0.24 0.28 0.31 0.41 0.52 0.57 0.59 0.62 0.62 0.63 0.69 0.80 0.83 0.84 0.98 1.21 1.33 1.56
0.32 0.26 0.26 0.28 0.29 0.35 0.30 0.35 0.46 0.53 0.51 0.43 0.50 0.53 0.51 0.55 0.55 0.53 0.54 0.60 0.69 0.80 0.93 0.92 0.88 0.90 0.79 0.79 0.81 0.82 0.83 0.92 0.95 0.94 0.84 0.85 0.92 0.93 0.97 0.84 0.65 0.61 0.68 0.65 0.68 0.55 0.45 0.33 0.25 0.20 0.17 0.17 0.18 0.16 0.15 0.15 0.19 0.23 0.27 0.32 0.40 0.52 0.56 0.59 0.64 0.67 0.71 0.74 0.82 0.79 0.88 1.11 1.28 1.36
0.43 0.58 0.42 0.41 0.50 0.48 0.38 0.40 0.52 0.60 0.55 0.47 0.49 0.50 0.49 0.50 0.51 0.51 0.48 0.56 0.74 0.84 0.83 0.81 0.79 0.77 0.80 0.80 0.81 0.81 0.77 0.82 0.95 1.07 1.10 0.89 0.65 0.74 0.81 0.64 0.59 0.53 0.59 0.70 0.64 0.52 0.41 0.31 0.28 0.30 0.26 0.21 0.19 0.19 0.17 0.15 0.17 0.18 0.23 0.24 0.28 0.37 0.46 0.53 0.57 0.63 0.68 0.71 0.80 0.84 0.87 0.99 1.07 1.26
0.38 0.34 0.32 0.43 0.58 0.55 0.49 0.42 0.56 0.62 0.74 0.62 0.56 0.50 0.46 0.47 0.46 0.41 0.40 0.47 0.55 0.76 0.93 1.04 1.02 1.06 1.07 1.03 0.93 0.96 1.05 1.05 1.18 1.19 1.10 0.82 0.76 0.86 0.73 0.65 0.51 0.50 0.58 0.71 0.68 0.73 0.48 0.39 0.35 0.35 0.33 0.33 0.28 0.22 0.19 0.17 0.16 0.17 0.22 0.22 0.24 0.26 0.34 0.44 0.51 0.56 0.60 0.68 0.71 0.79 0.88 0.92 1.03 1.22
0.37 0.35 0.31 0.33 0.46 0.49 0.45 0.48 0.64 0.59 0.68 0.61 0.54 0.53 0.51 0.49 0.45 0.39 0.37 0.42 0.51 0.57 0.69 0.82 0.94 1.01 1.01 1.08 0.96 0.90 0.90 0.94 1.03 1.24 1.13 0.82 0.84 0.92 0.76 0.79 0.81 0.81 0.70 0.68 0.85 0.85 0.52 0.56 0.53 0.43 0.50 0.51 0.32 0.23 0.23 0.22 0.22 0.20 0.21 0.24 0.28 0.25 0.26 0.30 0.34 0.45 0.53 0.68 0.62 0.70 0.78 0.85 0.98 1.21
0.33 0.28 0.30 0.30 0.49 0.60 0.59 0.59 0.71 0.78 1.15 0.82 0.63 0.51 0.53 0.56 0.50 0.39 0.36 0.36 0.43 0.50 0.53 0.63 0.73 0.78 0.84 1.01 1.01 0.84 0.79 0.90 0.96 1.01 0.88 0.76 0.79 0.81 0.75 0.82 0.87 0.85 0.64 0.57 0.89 0.86 0.54 0.76 0.75 0.88 0.63 0.51 0.45 0.34 0.25 0.27 0.23 0.24 0.22 0.23 0.29 0.27 0.28 0.27 0.28 0.30 0.41 0.50 0.66 0.75 0.73 0.76 0.92 1.07
0.38 0.31 0.30 0.31 0.38 0.47 0.57 0.66 0.82 0.91 1.01 0.94 0.80 0.85 0.71 0.56 0.43 0.31 0.28 0.30 0.34 0.40 0.42 0.45 0.55 0.59 0.73 0.90 0.95 0.86 0.87 0.88 0.92 0.89 0.80 0.80 0.78 0.80 0.73 0.68 0.63 0.62 0.56 0.54 0.63 0.68 0.70 0.75 0.81 0.91 0.93 0.88 0.51 0.57 0.45 0.29 0.30 0.27 0.27 0.26 0.28 0.25 0.30 0.29 0.29 0.33 0.34 0.43 0.54 0.76 0.84 0.87 0.96 1.01
0.31 0.28 0.28 0.28 0.31 0.37 0.51 0.69 0.70 0.89 0.94 1.05 0.82 0.67 0.88 0.76 0.61 0.36 0.28 0.27 0.33 0.39 0.41 0.42 0.47 0.50 0.56 0.71 0.83 0.71 0.72 0.78 0.84 0.83 0.74 0.70 0.75 0.79 0.81 0.77 0.75 0.64 0.57 0.47 0.55 0.66 0.63 0.70 0.62 0.75 0.70 0.79 0.57 0.53 0.48 0.53 0.36 0.34 0.33 0.31 0.28 0.27 0.27 0.30 0.29 0.30 0.33 0.34 0.43 0.57 0.74 0.87 0.98 1.14
0.27 0.27 0.29 0.27 0.27 0.32 0.41 0.60 0.68 0.87 1.04 1.06 1.05 1.02 0.71 0.69 0.68 0.69 0.61 0.60 0.49 0.39 0.38 0.42 0.45 0.41 0.40 0.49 0.68 0.63 0.58 0.62 0.70 0.76 0.75 0.66 0.76 1.02 0.80 0.74 0.84 0.81 0.78 0.70 0.71 0.78 0.83 0.78 0.65 0.89 0.69 0.59 0.63 0.68 0.58 0.56 0.54 0.56 0.41 0.37 0.39 0.34 0.40 0.32 0.31 0.30 0.27 0.30 0.32 0.51 0.68 0.75 0.87 1.05
0.31 0.36 0.33 0.30 0.33 0.43 0.51 0.57 0.64 0.74 0.85 0.86 0.88 0.81 0.72 0.65 0.70 0.66 0.66 0.59 0.52 0.49 0.43 0.41 0.41 0.36 0.35 0.33 0.40 0.49 0.49 0.60 0.69 0.64 0.59 0.62 0.78 0.71 0.73 0.83 0.67 0.66 0.68 0.71 0.68 0.73 0.77 0.75 0.63 0.58 0.66 0.71 0.70 0.69 0.61 0.52 0.54 0.65 0.55 0.44 0.43 0.39 0.37 0.33 0.34 0.36 0.36 0.32 0.35 0.41 0.53 0.67 0.85 1.05
0.25 0.29 0.41 0.36 0.41 0.44 0.44 0.43 0.57 0.71 0.82 0.92 0.75 0.57 0.65 0.67 0.66 0.74 0.70 0.61 0.51 0.50 0.45 0.36 0.30 0.26 0.25 0.25 0.28 0.32 0.48 0.51 0.70 0.81 0.75 0.76 0.67 0.60 0.66 0.75 0.70 0.64 0.77 0.77 0.84 0.88 0.74 0.69 0.65 0.60 0.65 0.53 0.63 0.56 0.58 0.60 0.68 0.61 0.54 0.70 0.67 0.45 0.40 0.38 0.41 0.37 0.39 0.49 0.41 0.47 0.50 0.63 0.72 0.89
0.24 0.29 0.31 0.32 0.34 0.38 0.41 0.40 0.53 0.57 0.53 0.59 0.73 0.67 0.66 0.80 0.79 0.71 0.56 0.50 0.52 0.47 0.33 0.25 0.23 0.22 0.21 0.22 0.23 0.28 0.44 0.65 0.77 0.74 0.71 0.64 0.57 0.62 0.66 0.70 0.68 0.68 0.68 0.73 0.80 0.95 0.81 0.75 0.73 0.71 0.66 0.63 0.57 0.53 0.52 0.62 0.74 0.64 0.82 0.69 0.60 0.71 0.74 0.57 0.51 0.50 0.51 0.48 0.53 0.51 0.53 0.54 0.64 0.85
0.37 0.32 0.34 0.43 0.50 0.48 0.45 0.47 0.39 0.36 0.41 0.45 0.57 0.76 0.75 0.77 0.74 0.58 0.48 0.41 0.37 0.35 0.32 0.27 0.21 0.19 0.20 0.23 0.30 0.36 0.48 0.66 0.60 0.58 0.65 0.67 0.61 0.57 0.57 0.64 0.65 0.64 0.69 0.68 0.76 0.80 0.83 0.79 0.79 0.83 0.81 0.71 0.70 0.59 0.52 0.62 0.70 0.72 0.82 0.75 0.78 1.00 0.93 0.68 0.54 0.45 0.51 0.63 0.60 0.61 0.52 0.52 0.51 0.70
0.40 0.41 0.49 0.46 0.41 0.44 0.46 0.45 0.48 0.49 0.41 0.35 0.38 0.62 0.84 0.86 0.74 0.43 0.39 0.30 0.34 0.30 0.28 0.24 0.23 0.27 0.29 0.34 0.32 0.36 0.39 0.46 0.46 0.46 0.55 0.68 0.69 0.66 0.63 0.66 0.69 0.63 0.63 0.63 0.64 0.66 0.71 0.80 0.86 1.01 0.87 0.68 0.82 0.77 0.68 0.75 0.75 0.67 0.75 0.87 0.78 0.67 0.82 1.07 0.87 0.75 0.62 0.55 0.53 0.57 0.59 0.61 0.62 0.73
0.40 0.42 0.41 0.41 0.42 0.40 0.47 0.46 0.46 0.44 0.46 0.43 0.33 0.36 0.58 0.66 0.67 0.62 0.37 0.38 0.35 0.33 0.37 0.35 0.31 0.29 0.29 0.27 0.28 0.31 0.42 0.38 0.39 0.42 0.46 0.54 0.66 0.76 0.72 0.72 0.60 0.60 0.60 0.64 0.71 0.69 0.71 0.75 0.76 1.07 1.05 0.76 0.80 0.83 0.87 0.90 0.85 0.75 0.75 0.84 0.84 0.78 0.70 0.69 0.70 0.68 0.67 0.70 0.61 0.51 0.53 0.54 0.53 0.60
0.40 0.45 0.43 0.44 0.42 0.37 0.34 0.32 0.32 0.33 0.37 0.40 0.38 0.38 0.43 0.57 0.63 0.66 0.48 0.39 0.36 0.33 0.36 0.41 0.32 0.33 0.36 0.39 0.32 0.36 0.29 0.27 0.29 0.34 0.49 0.57 0.61 0.69 0.82 0.78 0.63 0.53 0.53 0.55 0.58 0.67 0.74 0.74 0.67 0.72 0.85 0.88 0.81 0.85 0.92 0.98 0.92 0.84 0.88 0.91 0.89 0.79 0.68 0.63 0.60 0.60 0.63 0.64 0.65 0.69 0.64 0.63 0.59 0.58
0.34 0.38 0.36 0.41 0.42 0.36 0.30 0.30 0.32 0.34 0.41 0.40 0.39 0.45 0.40 0.41 0.53 0.58 0.45 0.43 0.45 0.49 0.43 0.39 0.37 0.30 0.31 0.33 0.39 0.29 0.26 0.24 0.27 0.32 0.31 0.38 0.61 0.74 0.69 0.67 0.55 0.50 0.53 0.54 0.53 0.57 0.67 0.79 0.85 0.93 0.93 0.97 1.02 1.08 0.97 1.00 0.91 0.90 0.87 0.85 0.79 0.75 0.72 0.72 0.61 0.59 0.60 0.63 0.65 0.66 0.62 0.57 0.59 0.58
0.31 0.33 0.32 0.34 0.39 0.42 0.40 0.36 0.37 0.41 0.42 0.43 0.42 0.44 0.45 0.36 0.36 0.49 0.42 0.45 0.36 0.41 0.52 0.40 0.39 0.40 0.37 0.34 0.35 0.35 0.32 0.27 0.29 0.34 0.35 0.36 0.44 0.52 0.56 0.56 0.52 0.45 0.45 0.50 0.52 0.56 0.62 0.68 0.79 0.92 1.02 1.10 1.02 1.07 1.05 1.01 0.94 0.91 0.85 0.79 0.73 0.73 0.70 0.76 0.74 0.76 0.78 0.71 0.68 0.59 0.63 0.65 0.58 0.57
0.29 0.31 0.34 0.34 0.34 0.38 0.39 0.43 0.46 0.46 0.48 0.48 0.44 0.46 0.48 0.43 0.39 0.41 0.39 0.36 0.36 0.36 0.37 0.33 0.32 0.33 0.35 0.33 0.33 0.36 0.37 0.39 0.39 0.36 0.35 0.32 0.31 0.38 0.46 0.49 0.43 0.42 0.46 0.44 0.47 0.55 0.67 0.68 0.74 0.84 0.91 0.92 0.88 0.87 0.85 0.77 0.74 0.77 0.84 0.73 0.73 0.75 0.74 0.77 0.82 0.78 0.78 0.75 0.72 0.60 0.47 0.41 0.46 0.52
0.29 0.31 0.34 0.37 0.37 0.38 0.42 0.42 0.43 0.45 0.47 0.45 0.45 0.49 0.49 0.41 0.39 0.39 0.41 0.43 0.46 0.41 0.36 0.33 0.30 0.30 0.33 0.32 0.35 0.36 0.38 0.38 0.35 0.39 0.36 0.35 0.37 0.41 0.42 0.44 0.43 0.38 0.36 0.40 0.48 0.48 0.57 0.61 0.69 0.77 0.88 0.97 0.86 0.69 0.58 0.55 0.56 0.61 0.63 0.73 0.77 0.84 0.79 0.75 0.76 0.78 0.80 0.79 0.76 0.68 0.55 0.50 0.49 0.54
0.29 0.31 0.34 0.38 0.41 0.40 0.41 0.45 0.41 0.38 0.38 0.38 0.40 0.43 0.43 0.36 0.34 0.35 0.40 0.42 0.40 0.40 0.39 0.37 0.34 0.31 0.34 0.31 0.31 0.30 0.35 0.38 0.39 0.38 0.32 0.33 0.31 0.33 0.37 0.39 0.40 0.41 0.43 0.45 0.45 0.51 0.57 0.63 0.65 0.68 0.72 0.75 0.76 0.72 0.65 0.57 0.56 0.62 0.68 0.71 0.72 0.70 0.79 0.83 0.75 0.69 0.82 0.90 0.83 0.86 1.00 1.01 0.74 0.75
0.31 0.30 0.31 0.33 0.35 0.36 0.35 0.37 0.38 0.34 0.33 0.35 0.35 0.35 0.39 0.37 0.34 0.38 0.38 0.41 0.39 0.36 0.36 0.38 0.36 0.34 0.36 0.36 0.34 0.34 0.32 0.32 0.31 0.28 0.27 0.29 0.30 0.31 0.30 0.30 0.30 0.34 0.47 0.50 0.50 0.49 0.50 0.54 0.52 0.57 0.57 0.57 0.61 0.65 0.65 0.61 0.64 0.69 0.71 0.76 0.70 0.70 0.83 0.84 0.79 0.77 0.71 0.70 0.79 0.95 0.92 0.82 0.95 0.90
0.29 0.28 0.29 0.30 0.31 0.31 0.30 0.30 0.34 0.34 0.34 0.33 0.32 0.31 0.34 0.35 0.34 0.38 0.40 0.39 0.40 0.40 0.39 0.38 0.38 0.36 0.35 0.38 0.37 0.39 0.35 0.33 0.30 0.29 0.27 0.27 0.29 0.30 0.29 0.31 0.37 0.33 0.39 0.46 0.42 0.43 0.40 0.34 0.35 0.38 0.49 0.58 0.56 0.62 0.83 0.80 0.79 0.79 0.80 0.78 0.71 0.72 0.74 0.82 0.85 0.86 0.82 0.75 0.71 0.77 0.82 0.92 0.89 0.81
0.29 0.28 0.27 0.27 0.28 0.29 0.29 0.28 0.30 0.31 0.32 0.32 0.31 0.31 0.32 0.34 0.34 0.35 0.35 0.33 0.36 0.37 0.38 0.37 0.36 0.34 0.34 0.33 0.32 0.33 0.32 0.32 0.32 0.32 0.30 0.32 0.32 0.31 0.30 0.36 0.41 0.40 0.38 0.34 0.29 0.27 0.23 0.27 0.35 0.38 0.53 0.79 0.75 0.87 0.92 0.76 0.68 0.66 0.68 0.68 0.69 0.72 0.77 0.79 0.77 0.84 0.97 0.96 0.86 0.81 0.86 0.94 0.86 0.85
0.26 0.26 0.26 0.26 0.25 0.26 0.27 0.28 0.27 0.29 0.29 0.31 0.31 0.33 0.34 0.35 0.36 0.38 0.41 0.39 0.39 0.41 0.41 0.38 0.36 0.35 0.35 0.34 0.33 0.34 0.34 0.34 0.35 0.35 0.32 0.31 0.33 0.35 0.34 0.31 0.28 0.29 0.30 0.25 0.21 0.26 0.27 0.32 0.35 0.50 0.54 0.63 0.68 0.68 0.68 0.56 0.52 0.54 0.57 0.59 0.64 0.71 0.83 0.83 0.82 0.84 0.88 0.84 0.77 0.81 0.97 1.03 0.91 0.89
0.27 0.26 0.25 0.25 0.24 0.24 0.25 0.26 0.26 0.26 0.29 0.32 0.34 0.36 0.38 0.39 0.41 0.40 0.42 0.44 0.45 0.47 0.46 0.42 0.38 0.38 0.38 0.38 0.37 0.38 0.37 0.37 0.37 0.37 0.36 0.32 0.31 0.31 0.32 0.31 0.32 0.29 0.33 0.33 0.33 0.36 0.31 0.35 0.51 0.44 0.53 0.54 0.44 0.51 0.53 0.53 0.55 0.51 0.57 0.62 0.73 0.68 0.74 0.89 0.91 0.87 0.88 0.87 0.86 0.76 0.78 0.74 0.72 0.66
0.29 0.28 0.26 0.24 0.23 0.22 0.23 0.23 0.25 0.27 0.29 0.31 0.33 0.34 0.36 0.37 0.37 0.37 0.39 0.43 0.45 0.44 0.43 0.42 0.38 0.39 0.40 0.42 0.42 0.41 0.40 0.38 0.39 0.37 0.37 0.35 0.33 0.34 0.34 0.34 0.37 0.36 0.36 0.33 0.31 0.31 0.31 0.33 0.37 0.40 0.41 0.39 0.39 0.36 0.35 0.37 0.42 0.51 0.53 0.60 0.66 0.64 0.63 0.78 0.96 0.95 0.99 1.05 0.92 0.81 0.78 0.72 0.61 0.55